Waarnemingen

Advertentie
Mijn weer
Marina Di Ginosa, Italië (16325): temperatuur & dauwpunt: 11.12.2017 22:00:00 - 17.12.2017 22:00:00 (CET)Marina Di Ginosa, Italië (16325): windsnelheid: 11.12.2017 22:00:00 - 17.12.2017 22:00:00 (CET)Marina Di Ginosa, Italië (16325): windrichting: 11.12.2017 22:00:00 - 17.12.2017 22:00:00 (CET)Marina Di Ginosa, Italië (16325): luchtdruk: 11.12.2017 22:00:00 - 17.12.2017 22:00:00 (CET)Marina Di Ginosa, Italië (16325): zicht: 11.12.2017 22:00:00 - 17.12.2017 22:00:00 (CET)
Datum & Tijd tt [°C] td [°C] ff [km/u] ff [kn] dd ppp [hPa] vv [km]
17.12.2017 22:00:00 - - - - - - -
17.12.2017 21:00:00 8,0 5,0 18 10 NW - 10
17.12.2017 20:00:00 9,0 5,0 15 8 NW - 10
17.12.2017 19:00:00 9,0 5,0 15 8 NW 1014,8 20
17.12.2017 18:00:00 10,0 5,0 18 10 NW - 10
17.12.2017 17:00:00 10,0 5,0 18 10 WNW - 10
17.12.2017 16:00:00 10,8 3,6 18 10 WNW 1012,7 20
17.12.2017 15:00:00 11,0 2,0 28 15 NW - 10
17.12.2017 14:00:00 11,0 3,0 22 12 NW - 10
17.12.2017 13:00:00 9,8 3,8 22 12 NW 1012,2 20
17.12.2017 12:00:00 9,0 4,0 18 10 NW - 10
17.12.2017 11:00:00 9,0 4,0 18 10 NW - 10
17.12.2017 10:00:00 8,4 5,3 9 5 WNW 1011,8 20
17.12.2017 09:00:00 8,0 7,0 8 4 NNW - 10
17.12.2017 08:00:00 8,0 8,0 9 5 WNW - 10
17.12.2017 07:00:00 8,6 8,0 8 4 WNW 1009,4 20
17.12.2017 06:00:00 9,0 8,0 8 4 NNW - 10
17.12.2017 05:00:00 10,0 8,0 8 4 NNW - 10
17.12.2017 04:00:00 10,2 8,1 8 4 ZW 1009,3 20
17.12.2017 03:00:00 10,0 8,0 8 4 W - 10
17.12.2017 02:00:00 10,0 8,0 9 5 WNW - 10
17.12.2017 01:00:00 10,2 8,1 9 5 WNW 1008,9 20
17.12.2017 00:00:00 10,0 8,0 9 5 NW - 10
16.12.2017 23:00:00 10,0 8,0 11 6 NW - 10
16.12.2017 22:00:00 11,0 7,9 4 2 NW 1008,3 20
16.12.2017 21:00:00 11,0 8,0 8 4 WNW - 10
16.12.2017 20:00:00 11,0 8,0 9 5 W - 10
16.12.2017 19:00:00 11,2 8,4 5 3 WZW 1007,9 20
16.12.2017 18:00:00 12,0 8,0 5 3 WNW - 10
16.12.2017 17:00:00 13,0 8,0 5 3 NNO - 10
16.12.2017 16:00:00 13,2 9,8 8 4 N 1007,4 18
16.12.2017 15:00:00 14,0 11,0 5 3 WZW - 10
16.12.2017 14:00:00 15,0 11,0 8 4 NNW - 10
16.12.2017 13:00:00 14,8 10,4 4 2 NNW 1006,6 18
16.12.2017 12:00:00 15,0 9,0 4 2 NNO - 10
16.12.2017 11:00:00 15,0 10,0 9 5 NNO - 10
16.12.2017 10:00:00 14,6 8,8 4 2 WZW 1007,4 18
16.12.2017 09:00:00 15,0 10,0 0 0 N - 10
16.12.2017 08:00:00 15,0 9,0 11 6 WNW - 10
16.12.2017 07:00:00 15,0 8,5 22 12 WNW 1004,9 15
16.12.2017 06:00:00 15,0 8,0 21 11 ZW - 10
16.12.2017 05:00:00 15,0 9,0 9 5 ZW - 10
16.12.2017 04:00:00 15,2 10,8 9 5 ZZW 1002,7 15
16.12.2017 03:00:00 15,0 10,0 11 6 Z - 10
16.12.2017 02:00:00 15,0 11,0 13 7 Z - 10
16.12.2017 01:00:00 15,0 9,6 9 5 ZZW 1003,4 15
16.12.2017 00:00:00 15,0 8,0 22 12 Z - 10
15.12.2017 23:00:00 15,0 8,0 15 8 ZZW - 10
15.12.2017 22:00:00 15,0 7,5 21 11 ZZW 1004,4 15
15.12.2017 21:00:00 15,0 8,0 22 12 Z - 10
15.12.2017 20:00:00 14,0 9,0 21 11 Z - 10
15.12.2017 19:00:00 14,8 5,6 9 5 ZW 1006,2 20
15.12.2017 18:00:00 15,0 2,0 11 6 WZW - 10
15.12.2017 17:00:00 14,0 1,0 26 14 ZW - 10
15.12.2017 16:00:00 13,8 10,0 11 6 ZZW 1007,4 18
15.12.2017 15:00:00 14,0 11,0 13 7 WZW - 10
15.12.2017 14:00:00 14,0 12,0 11 6 ZW - 10
15.12.2017 13:00:00 14,0 12,1 13 7 ZW 1008,6 18
15.12.2017 12:00:00 14,0 12,0 18 10 ZZW - 10
15.12.2017 11:00:00 14,0 13,0 15 8 ZZW - 10
15.12.2017 10:00:00 13,8 12,5 13 7 ZZW 1010,5 20
15.12.2017 09:00:00 14,0 12,0 8 4 WNW - 10
15.12.2017 08:00:00 13,0 11,0 9 5 ZW - 10
15.12.2017 07:00:00 13,2 11,3 13 7 ZZW 1010,6 18
15.12.2017 06:00:00 13,0 11,0 15 8 Z - 10
15.12.2017 05:00:00 13,0 11,0 13 7 WZW - 10
15.12.2017 04:00:00 12,0 10,4 8 4 Z 1011,8 15
15.12.2017 03:00:00 12,0 10,0 4 2 ZO - 10
15.12.2017 02:00:00 14,0 12,0 9 5 Z - 10
15.12.2017 01:00:00 14,0 11,5 8 4 Z 1013,2 15
15.12.2017 00:00:00 14,0 11,0 15 8 Z - 10
14.12.2017 23:00:00 14,0 11,0 9 5 Z - 10
14.12.2017 22:00:00 14,0 10,2 18 10 Z 1014,4 15
14.12.2017 21:00:00 14,0 10,0 11 6 ZW - 10
14.12.2017 20:00:00 14,0 10,0 9 5 WZW - 10
14.12.2017 19:00:00 14,0 7,8 13 7 ZW 1015,0 15
14.12.2017 18:00:00 14,0 5,0 13 7 ZW - 10
14.12.2017 17:00:00 14,0 4,0 16 9 ZW - 10
14.12.2017 16:00:00 14,0 4,6 15 8 ZW 1015,1 30
14.12.2017 15:00:00 14,0 5,0 16 9 ZW - 10
14.12.2017 14:00:00 15,0 6,0 16 9 ZW - 10
14.12.2017 13:00:00 14,8 6,4 15 8 WZW 1015,4 25
14.12.2017 12:00:00 13,0 12,0 0 0 N - 10
14.12.2017 11:00:00 10,0 9,0 5 3 NNW - 10
14.12.2017 10:00:00 7,6 7,0 4 2 O 1017,2 25
14.12.2017 09:00:00 6,0 6,0 5 3 ONO - 10
14.12.2017 08:00:00 5,0 4,0 8 4 NW - 10
14.12.2017 07:00:00 5,0 4,4 9 5 N 1017,5 25
14.12.2017 06:00:00 5,0 5,0 9 5 NW - 10
14.12.2017 05:00:00 6,0 5,0 0 0 N - 10
14.12.2017 04:00:00 7,0 6,4 8 4 NW 1017,7 25
14.12.2017 03:00:00 - - - - - - -
14.12.2017 02:00:00 8,0 8,0 9 5 W - 10
14.12.2017 01:00:00 8,2 7,4 9 5 WNW 1017,6 25
14.12.2017 00:00:00 8,0 7,0 5 3 WZW - 10
13.12.2017 23:00:00 9,0 8,0 8 4 WNW - 10
13.12.2017 22:00:00 10,0 9,2 8 4 NW 1018,2 20
13.12.2017 21:00:00 11,0 10,0 9 5 WNW - 10
13.12.2017 20:00:00 12,0 11,0 9 5 NW - 10
13.12.2017 19:00:00 13,2 12,4 9 5 NW 1018,0 15
13.12.2017 18:00:00 14,0 13,0 13 7 NNW - 10
13.12.2017 17:00:00 14,0 13,0 5 3 O - 10
13.12.2017 16:00:00 14,8 14,0 8 4 N 1017,4 15
13.12.2017 15:00:00 15,0 14,0 11 6 ZZO - 10
13.12.2017 14:00:00 13,0 13,0 9 5 ZZO - 10
13.12.2017 13:00:00 12,2 11,9 5 3 NO 1018,3 15
13.12.2017 12:00:00 11,0 11,0 4 2 NO - 10
13.12.2017 11:00:00 11,0 11,0 5 3 NNW - 10
13.12.2017 10:00:00 11,0 10,7 8 4 ONO 1019,9 15
13.12.2017 09:00:00 11,0 11,0 5 3 NO - 10
13.12.2017 08:00:00 11,0 11,0 5 3 ONO - 10
13.12.2017 07:00:00 10,6 10,4 8 4 ZZW 1018,6 20
13.12.2017 06:00:00 11,0 10,0 9 5 N - 10
13.12.2017 05:00:00 10,0 10,0 11 6 N - 10
13.12.2017 04:00:00 12,0 11,9 11 6 NNW 1018,4 18
13.12.2017 03:00:00 12,0 12,0 13 7 ONO - 10
13.12.2017 02:00:00 10,0 10,0 11 6 NNO - 10
13.12.2017 01:00:00 10,2 9,6 9 5 NNO 1018,4 18
13.12.2017 00:00:00 11,0 10,0 8 4 N - 10
12.12.2017 23:00:00 12,0 11,0 5 3 NO - 10
12.12.2017 22:00:00 12,0 11,2 9 5 O 1018,5 18
12.12.2017 21:00:00 11,0 10,0 4 2 NW - 10
12.12.2017 20:00:00 12,0 11,0 0 0 N - 10
12.12.2017 19:00:00 13,4 11,6 8 4 N 1018,0 25
12.12.2017 18:00:00 15,0 13,0 8 4 WZW - 10
12.12.2017 17:00:00 16,0 14,0 18 10 ZZO - 10
12.12.2017 16:00:00 17,0 14,7 18 10 ZO 1017,2 25
12.12.2017 15:00:00 17,0 13,0 16 9 ZO - 10
12.12.2017 14:00:00 17,0 13,0 18 10 ZO - 10
12.12.2017 13:00:00 17,0 12,1 21 11 Z 1016,8 25
12.12.2017 12:00:00 17,0 12,0 8 4 ZZO - 10
12.12.2017 11:00:00 16,0 14,0 9 5 ZZO - 10
12.12.2017 10:00:00 15,2 14,9 9 5 ZO 1016,8 18
12.12.2017 09:00:00 13,0 12,0 11 6 ZO - 10
12.12.2017 08:00:00 10,0 10,0 8 4 ZO - 10
12.12.2017 07:00:00 10,0 9,4 9 5 ZZO 1014,6 12
12.12.2017 06:00:00 - - - - - - -
12.12.2017 05:00:00 - - - - - - -
12.12.2017 04:00:00 14,0 13,0 8 4 ZZO 1013,4 10
12.12.2017 03:00:00 - - - - - - -
12.12.2017 02:00:00 - - - - - - -
12.12.2017 01:00:00 - - - - - - -
12.12.2017 00:00:00 16,0 15,0 29 16 ZZO - 10
11.12.2017 23:00:00 16,0 15,0 26 14 Z - 10
11.12.2017 22:00:00 16,0 15,4 29 16 ZZO 1014,1 15

tt = temperatuur
td = dauwpunt
ff = windsnelheid
dd = windrichting
ppp = luchtdruk
vv = zicht

Weerstations in de omgeving